IZ3ZOD-13 Weather Reports


time (UTC)temp
C
wind
direction
speed
KPH
gust
KPH
rain 1hr
cm
rain 24hr
cm
rain mn
cm
humidity
%
barometer
mb
20260508050003 13 0 0.0 0.0 0.00 0.00 0.00 90 1015.4
20260508045603 13 0 0.0 0.0 0.00 0.00 0.00 91 1015.4
20260508045203 13 0 0.0 0.0 0.00 0.00 0.00 91 1015.4
20260508044803 12 0 0.0 0.0 0.00 0.00 0.00 91 1015.3
20260508044403 12 0 0.0 0.0 0.00 0.00 0.00 91 1015.3
20260508044003 12 0 0.0 0.0 0.00 0.00 0.00 92 1015.2
20260508043603 12 0 0.0 0.0 0.00 0.00 0.00 92 1015.3
20260508043416 12 0 0.0 0.0 0.00 0.00 0.00 92 1015.3
20260508042803 12 0 0.0 0.0 0.00 0.00 0.00 92 1015.0
20260508042615 12 0 0.0 0.0 0.00 0.00 0.00 92 1015.1
20260508042003 12 9 0.0 3.2 0.00 0.00 0.00 92 1015.5
20260508041603 12 8 0.0 4.8 0.00 0.00 0.00 92 1015.1
20260508041413 12 8 0.0 4.8 0.00 0.00 0.00 92 1015.3
20260508041012 12 8 1.6 4.8 0.00 0.00 0.00 92 1015.0
20260508040403 12 7 1.6 3.2 0.00 0.00 0.00 93 1015.1
20260508040216 12 5 1.6 3.2 0.00 0.00 0.00 93 1015.0
20260508035816 12 4 1.6 4.8 0.00 0.00 0.00 93 1015.0
20260508035203 12 8 1.6 4.8 0.00 0.00 0.00 93 1015.0
20260508034803 12 11 0.0 3.2 0.00 0.00 0.00 93 1015.2
20260508034403 12 7 1.6 4.8 0.00 0.00 0.00 93 1015.1
20260508034003 12 4 1.6 4.8 0.00 0.00 0.00 93 1014.9
20260508033603 12 1 1.6 4.8 0.00 0.00 0.00 93 1015.1
20260508033203 12 360 3.2 6.4 0.00 0.00 0.00 93 1014.9
20260508032803 12 2 3.2 6.4 0.00 0.00 0.00 93 1014.9
20260508032616 12 2 3.2 6.4 0.00 0.00 0.00 93 1014.9
20260508032003 12 4 1.6 4.8 0.00 0.00 0.00 93 1015.0
20260508031603 12 2 1.6 4.8 0.00 0.00 0.00 93 1015.0
20260508031203 12 6 1.6 4.8 0.00 0.00 0.00 93 1015.1
20260508030803 12 3 3.2 6.4 0.00 0.00 0.00 93 1015.0
20260508030403 12 3 4.8 6.4 0.00 0.00 0.00 94 1015.1
20260508030003 12 1 4.8 6.4 0.00 0.00 0.00 94 1014.9
20260508025816 12 1 4.8 6.4 0.00 0.00 0.00 94 1015.0
20260508025416 12 2 4.8 6.4 0.00 0.00 0.00 94 1015.1
20260508025015 12 3 3.2 6.4 0.00 0.03 0.00 94 1015.1
20260508024614 12 7 1.6 4.8 0.00 0.03 0.00 94 1015.2
20260508024003 13 353 0.0 1.6 0.00 0.03 0.00 93 1015.1
20260508023603 13 354 1.6 3.2 0.00 0.03 0.00 93 1015.4
20260508023203 13 354 1.6 3.2 0.00 0.03 0.00 93 1015.1
20260508022803 13 355 0.0 3.2 0.00 0.03 0.00 93 1015.1
20260508022616 13 355 0.0 3.2 0.00 0.03 0.00 93 1015.3
20260508022003 13 354 0.0 3.2 0.00 0.03 0.00 93 1015.4
20260508021603 13 360 0.0 1.6 0.00 0.03 0.00 93 1015.2
20260508021203 13 4 0.0 1.6 0.00 0.03 0.00 93 1015.3
20260508020803 13 3 1.6 3.2 0.00 0.03 0.00 93 1015.2
20260508020403 13 2 1.6 3.2 0.00 0.03 0.00 93 1015.3
20260508020212 13 2 1.6 3.2 0.00 0.03 0.00 93 1015.2
20260508015603 13 4 1.6 6.4 0.00 0.03 0.00 92 1015.2
20260508015203 13 3 3.2 6.4 0.00 0.03 0.00 93 1015.3
20260508014803 14 7 4.8 6.4 0.00 0.03 0.00 92 1015.1
20260508014403 14 9 4.8 9.7 0.00 0.03 0.00 92 1015.2
20260508014003 14 13 4.8 9.7 0.00 0.03 0.00 92 1015.1
20260508013603 14 17 4.8 9.7 0.00 0.03 0.00 92 1015.1
20260508013203 14 16 4.8 6.4 0.00 0.03 0.00 92 1015.2
20260508012803 14 14 4.8 6.4 0.00 0.03 0.00 92 1015.0
20260508012403 14 16 4.8 8.0 0.00 0.03 0.00 92 1015.1
20260508012216 14 19 4.8 9.7 0.00 0.03 0.00 92 1015.2
20260508011603 14 28 4.8 9.7 0.00 0.03 0.00 92 1015.0
20260508011415 14 32 4.8 9.7 0.00 0.03 0.00 92 1015.4
20260508010803 14 30 4.8 9.7 0.00 0.03 0.00 91 1015.1
20260508010403 14 23 4.8 9.7 0.00 0.03 0.00 91 1015.2
20260508010213 14 24 4.8 9.7 0.00 0.03 0.00 91 1015.1
20260508005603 14 21 3.2 6.4 0.00 0.03 0.00 91 1015.2
20260508005203 14 19 3.2 4.8 0.00 0.03 0.00 91 1015.3
20260508004803 14 18 4.8 9.7 0.00 0.03 0.00 90 1015.3
20260508004403 14 23 4.8 9.7 0.00 0.03 0.00 90 1015.4
20260508004003 14 31 4.8 6.4 0.00 0.03 0.00 90 1015.3
20260508003814 14 34 4.8 6.4 0.00 0.03 0.00 90 1015.1
20260508003203 14 36 4.8 8.0 0.00 0.03 0.00 89 1015.2
20260508002803 14 26 6.4 12.9 0.00 0.03 0.00 89 1015.4
20260508002403 14 20 8.0 12.9 0.00 0.03 0.00 89 1015.3
20260508002217 14 21 8.0 12.9 0.00 0.03 0.00 89 1015.2
20260508001603 14 33 6.4 11.3 0.00 0.03 0.00 89 1015.4
20260508001203 14 31 6.4 11.3 0.00 0.03 0.00 88 1015.5
20260508001015 14 29 6.4 11.3 0.00 0.03 0.00 88 1015.3
20260508000405 15 22 6.4 12.9 0.00 0.03 0.00 88 1015.4
20260508000214 15 22 6.4 12.9 0.00 0.03 0.00 88 1015.4
20260507235603 15 24 6.4 11.3 0.00 0.03 0.00 88 1015.4
20260507235418 15 22 6.4 11.3 0.00 0.03 0.00 88 1015.2
20260507235017 14 13 6.4 11.3 0.00 0.03 0.00 88 1015.5
20260507234403 14 11 6.4 9.7 0.00 0.03 0.00 87 1015.4
20260507234003 14 11 6.4 11.3 0.00 0.03 0.00 87 1015.5
20260507233815 14 6 4.8 11.3 0.00 0.03 0.00 87 1015.6
20260507233203 14 4 4.8 11.3 0.00 0.03 0.00 88 1015.5
20260507232803 14 5 4.8 6.4 0.00 0.03 0.00 88 1015.6
20260507232613 14 7 4.8 6.4 0.00 0.03 0.00 89 1015.5
20260507232003 14 6 3.2 6.4 0.00 0.03 0.00 89 1015.2
20260507231603 14 6 3.2 6.4 0.00 0.03 0.00 89 1015.5
20260507231203 14 2 1.6 4.8 0.00 0.03 0.00 89 1015.5
20260507230803 14 1 3.2 6.4 0.00 0.03 0.00 89 1015.5
20260507230615 14 1 3.2 6.4 0.00 0.03 0.00 89 1015.5
20260507230003 14 6 3.2 6.4 0.00 0.03 0.00 89 1015.5
20260507225603 14 4 3.2 6.4 0.00 0.03 0.00 88 1015.2
20260507225413 14 3 3.2 6.4 0.00 0.03 0.00 88 1015.2
20260507224803 14 5 3.2 4.8 0.00 0.03 0.00 87 1015.3
20260507224403 14 10 3.2 4.8 0.00 0.03 0.00 87 1015.3
20260507224003 14 14 3.2 4.8 0.00 0.03 0.00 87 1015.2
20260507223603 14 13 1.6 3.2 0.00 0.03 0.00 87 1015.5
20260507223203 14 5 1.6 3.2 0.00 0.03 0.00 87 1015.4
20260507222803 14 5 1.6 3.2 0.00 0.03 0.00 86 1015.4
20260507222614 14 6 1.6 4.8 0.00 0.03 0.00 86 1015.3
20260507222003 15 10 3.2 4.8 0.00 0.03 0.00 85 1015.3
20260507221603 14 12 3.2 4.8 0.00 0.03 0.00 86 1015.4
20260507221203 14 12 1.6 3.2 0.00 0.03 0.00 85 1015.1
20260507220803 15 7 3.2 4.8 0.00 0.03 0.00 85 1015.0
20260507220403 15 10 3.2 6.4 0.00 0.03 0.00 84 1015.1
20260507220004 15 11 3.2 6.4 0.00 0.03 0.00 84 1015.2
20260507215603 15 15 3.2 6.4 0.00 0.03 0.03 83 1015.2
20260507215414 15 17 3.2 6.4 0.00 0.03 0.03 83 1015.2
20260507214803 15 26 3.2 6.4 0.00 0.03 0.03 83 1015.2
20260507214403 15 27 1.6 4.8 0.00 0.03 0.03 83 1015.1
20260507214003 15 20 1.6 3.2 0.00 0.03 0.03 83 1015.2
20260507213603 15 24 1.6 9.7 0.00 0.03 0.03 82 1015.3
20260507213203 15 25 3.2 9.7 0.00 0.03 0.03 82 1015.1
20260507212804 15 28 1.6 9.7 0.00 0.03 0.03 83 1015.0
20260507212403 15 25 1.6 3.2 0.00 0.03 0.03 83 1015.0
20260507212003 15 18 1.6 3.2 0.00 0.03 0.03 83 1015.1
20260507211813 15 14 1.6 3.2 0.00 0.03 0.03 83 1014.9
20260507211203 15 12 1.6 4.8 0.00 0.03 0.03 83 1015.1
20260507210803 15 10 1.6 3.2 0.00 0.03 0.03 83 1015.2
20260507210403 15 2 3.2 6.4 0.00 0.03 0.03 83 1015.0
20260507210003 15 3 4.8 9.7 0.00 0.03 0.03 83 1015.1
20260507205603 14 6 4.8 9.7 0.00 0.03 0.03 84 1015.1
20260507205203 14 8 3.2 9.7 0.00 0.03 0.03 84 1015.0
20260507205014 14 12 1.6 6.4 0.00 0.03 0.03 83 1015.1
20260507204403 15 0 0.0 0.0 0.00 0.03 0.03 82 1014.8
20260507204212 15 0 0.0 0.0 0.00 0.03 0.03 82 1014.8
20260507203603 15 0 0.0 0.0 0.00 0.03 0.03 80 1014.8
20260507203203 15 0 0.0 0.0 0.00 0.03 0.03 80 1014.9
20260507203016 15 0 0.0 0.0 0.00 0.03 0.03 80 1014.9
20260507202403 15 0 0.0 0.0 0.00 0.03 0.03 80 1014.9
20260507202004 15 0 0.0 0.0 0.00 0.03 0.03 80 1014.6
20260507201603 15 0 0.0 0.0 0.00 0.03 0.03 79 1014.7
20260507201203 15 77 0.0 0.0 0.00 0.03 0.03 79 1014.8
20260507200803 16 78 0.0 3.2 0.00 0.03 0.03 78 1014.6
20260507200617 16 81 1.6 3.2 0.00 0.03 0.03 78 1014.5
20260507200003 16 78 1.6 4.8 0.00 0.03 0.03 78 1014.6
20260507195603 16 77 1.6 4.8 0.00 0.03 0.03 78 1014.6
20260507195203 16 86 1.6 3.2 0.00 0.03 0.03 78 1014.5
20260507194803 16 78 1.6 3.2 0.00 0.03 0.03 77 1014.5
20260507194403 16 76 1.6 3.2 0.00 0.03 0.03 77 1014.5
20260507194003 16 69 1.6 3.2 0.00 0.03 0.03 77 1014.4
20260507193603 16 84 0.0 3.2 0.00 0.03 0.03 76 1014.4
20260507193417 16 84 0.0 3.2 0.00 0.03 0.03 76 1014.3
20260507193016 16 83 0.0 3.2 0.00 0.03 0.03 75 1014.4
20260507192403 17 81 1.6 3.2 0.00 0.03 0.03 74 1014.5
20260507192003 17 76 3.2 4.8 0.00 0.03 0.03 73 1014.3
20260507191603 17 74 1.6 4.8 0.00 0.03 0.03 73 1014.1
20260507191414 17 77 1.6 4.8 0.00 0.03 0.03 73 1014.1
20260507191013 17 83 1.6 6.4 0.00 0.03 0.03 72 1013.9
20260507190403 17 79 3.2 6.4 0.00 0.03 0.03 71 1013.9
20260507190004 18 71 4.8 6.4 0.00 0.03 0.03 70 1013.7
20260507185603 18 59 4.8 9.7 0.00 0.03 0.03 70 1013.6
20260507185203 18 63 4.8 9.7 0.00 0.03 0.03 69 1013.7
20260507184803 18 67 3.2 6.4 0.00 0.03 0.03 68 1013.5
20260507184614 18 71 3.2 6.4 0.00 0.03 0.03 67 1013.6
20260507184214 18 59 3.2 6.4 0.00 0.03 0.03 66 1013.6
20260507183813 18 58 3.2 4.8 0.00 0.03 0.03 66 1013.6
20260507183203 18 53 1.6 3.2 0.00 0.03 0.03 66 1013.5
20260507182803 18 42 1.6 4.8 0.00 0.03 0.03 65 1013.3
20260507182616 18 39 1.6 4.8 0.00 0.03 0.03 65 1013.3
20260507182003 19 76 0.0 3.2 0.00 0.03 0.03 64 1013.3
20260507181603 19 130 1.6 6.4 0.00 0.03 0.03 63 1013.2
20260507181203 19 102 3.2 12.9 0.00 0.03 0.03 62 1013.3
20260507180803 19 73 4.8 12.9 0.00 0.03 0.03 63 1013.1
20260507180403 19 50 4.8 12.9 0.00 0.03 0.03 66 1013.0
20260507180003 20 39 3.2 6.4 0.00 0.03 0.03 66 1012.9
20260507175603 20 42 4.8 9.7 0.00 0.03 0.03 64 1012.8
20260507175203 20 46 4.8 9.7 0.00 0.03 0.03 63 1012.7
20260507174803 21 48 3.2 4.8 0.00 0.03 0.03 60 1012.7
20260507174403 21 57 3.2 3.2 0.00 0.03 0.03 59 1012.6
20260507174003 21 89 1.6 3.2 0.00 0.03 0.03 54 1012.6
20260507173603 21 160 1.6 4.8 0.00 0.03 0.03 52 1012.6
20260507173203 22 199 3.2 6.4 0.00 0.03 0.03 49 1012.5
20260507172803 22 204 4.8 9.7 0.00 0.03 0.03 48 1012.5
20260507172617 22 204 4.8 9.7 0.00 0.03 0.03 48 1012.4
20260507172003 22 208 4.8 6.4 0.00 0.03 0.03 48 1012.4
20260507171603 22 207 4.8 9.7 0.00 0.03 0.03 49 1012.2
20260507171203 22 216 4.8 9.7 0.00 0.03 0.03 47 1012.4
20260507170803 22 221 4.8 9.7 0.00 0.03 0.03 46 1012.4
20260507170403 22 227 4.8 9.7 0.00 0.03 0.03 47 1012.1
20260507170213 22 226 6.4 14.5 0.00 0.03 0.03 48 1012.3
20260507165603 22 226 6.4 14.5 0.00 0.03 0.03 46 1012.3
20260507165417 22 227 6.4 14.5 0.00 0.03 0.03 45 1012.2
20260507164803 22 238 4.8 9.7 0.00 0.03 0.03 47 1012.3
20260507164403 22 236 6.4 11.3 0.00 0.03 0.03 45 1012.4
20260507164215 22 228 6.4 11.3 0.00 0.03 0.03 44 1012.3
20260507163603 22 205 6.4 12.9 0.00 0.03 0.03 45 1012.3
20260507163414 22 191 6.4 12.9 0.00 0.03 0.03 45 1012.4
20260507162803 22 177 6.4 14.5 0.00 0.03 0.03 47 1012.2
20260507162403 22 184 6.4 14.5 0.00 0.03 0.03 47 1012.3
20260507162003 22 193 8.0 14.5 0.00 0.03 0.03 47 1012.2
20260507161816 22 198 8.0 11.3 0.00 0.03 0.03 48 1012.3
20260507161203 22 210 8.0 14.5 0.00 0.03 0.03 47 1012.4
20260507160803 22 196 8.0 14.5 0.00 0.03 0.03 46 1012.3
20260507160614 22 194 8.0 14.5 0.00 0.03 0.03 46 1012.2
20260507160214 22 199 8.0 14.5 0.00 0.03 0.03 47 1012.2
20260507155603 22 204 9.7 14.5 0.00 0.03 0.03 46 1012.3
20260507155203 22 196 9.7 17.7 0.00 0.03 0.03 46 1012.4
20260507154803 23 191 9.7 17.7 0.00 0.03 0.03 47 1012.4
20260507154403 23 198 9.7 17.7 0.00 0.03 0.03 47 1012.2
20260507154003 23 214 8.0 16.1 0.00 0.03 0.03 45 1012.3
20260507153603 23 230 8.0 14.5 0.00 0.03 0.03 46 1012.2
20260507153203 22 237 4.8 14.5 0.00 0.03 0.03 46 1012.2
20260507152803 22 222 4.8 14.5 0.00 0.03 0.03 47 1012.3
20260507152403 22 200 6.4 12.9 0.00 0.03 0.03 48 1012.2
20260507152004 22 193 9.7 17.7 0.00 0.03 0.03 50 1012.2
20260507151603 22 198 11.3 17.7 0.00 0.03 0.03 46 1012.0
20260507151203 22 202 9.7 14.5 0.00 0.03 0.03 47 1012.2
20260507151016 23 203 9.7 16.1 0.00 0.03 0.03 46 1012.2
20260507150403 23 200 8.0 16.1 0.00 0.03 0.03 46 1012.1
20260507150003 23 208 8.0 14.5 0.00 0.03 0.03 45 1012.1
20260507145603 23 202 9.7 16.1 0.00 0.03 0.03 46 1012.1
20260507145203 23 205 9.7 16.1 0.00 0.03 0.03 45 1012.4
20260507145013 23 209 9.7 16.1 0.00 0.03 0.03 48 1012.5
20260507144403 23 209 8.0 16.1 0.00 0.03 0.03 44 1012.2
20260507144003 23 204 6.4 16.1 0.00 0.03 0.03 47 1012.4
20260507143603 22 211 8.0 12.9 0.00 0.03 0.03 47 1012.1
20260507143203 22 209 8.0 16.1 0.00 0.03 0.03 46 1012.4
20260507142803 22 210 8.0 16.1 0.00 0.03 0.03 45 1012.3
20260507142403 23 220 8.0 16.1 0.00 0.03 0.03 44 1012.5
20260507142003 23 202 9.7 16.1 0.00 0.03 0.03 44 1012.4
20260507141603 23 195 8.0 16.1 0.00 0.03 0.03 48 1012.2
20260507141203 23 194 4.8 14.5 0.00 0.03 0.03 45 1012.4
20260507140803 22 215 4.8 8.0 0.00 0.03 0.03 48 1012.4
20260507140403 22 211 4.8 8.0 0.00 0.03 0.03 47 1012.4
20260507140004 22 211 6.4 11.3 0.00 0.03 0.03 49 1012.5
20260507135603 22 200 9.7 17.7 0.00 0.03 0.03 47 1012.4
20260507135203 22 182 9.7 17.7 0.00 0.03 0.03 51 1012.6
20260507134803 23 189 8.0 17.7 0.00 0.03 0.03 49 1012.6
20260507134403 23 216 4.8 12.9 0.00 0.03 0.03 49 1012.5
20260507134003 22 250 6.4 9.7 0.00 0.03 0.03 49 1012.6
20260507133603 22 239 8.0 14.5 0.00 0.03 0.03 49 1012.6
20260507133203 23 227 9.7 14.5 0.00 0.03 0.03 47 1012.6
20260507132803 23 208 9.7 20.9 0.00 0.03 0.03 46 1012.7
20260507132403 23 215 8.0 20.9 0.00 0.03 0.03 47 1012.7
20260507132003 23 239 6.4 12.9 0.00 0.03 0.03 48 1012.4
20260507131603 23 251 6.4 12.9 0.00 0.03 0.03 47 1012.6
20260507131203 22 248 6.4 12.9 0.00 0.03 0.03 48 1012.5
20260507130803 21 246 6.4 11.3 0.00 0.03 0.03 52 1012.6
20260507130403 21 236 8.0 11.3 0.00 0.03 0.03 52 1012.7
20260507130003 22 229 8.0 16.1 0.00 0.03 0.03 50 1012.5
20260507125603 22 214 9.7 16.1 0.00 0.10 0.03 49 1012.7
20260507125203 23 217 9.7 16.1 0.00 0.20 0.03 49 1012.6
20260507124803 23 208 9.7 14.5 0.00 0.38 0.03 51 1012.7
20260507124403 22 209 9.7 17.7 0.00 0.61 0.03 49 1012.6
20260507124003 23 202 8.0 17.7 0.00 0.76 0.03 47 1012.6
20260507123603 22 211 9.7 17.7 0.00 0.81 0.03 51 1012.6
20260507123203 22 205 9.7 16.1 0.00 0.91 0.03 53 1012.4
20260507122803 22 206 8.0 16.1 0.00 0.94 0.03 49 1012.6
20260507122615 22 202 8.0 17.7 0.00 0.94 0.03 53 1012.7
20260507122214 22 208 9.7 17.7 0.00 0.97 0.03 52 1012.6
20260507121603 22 203 9.7 20.9 0.00 0.97 0.03 54 1012.9
20260507121203 22 200 9.7 20.9 0.00 0.97 0.03 55 1012.6
20260507120803 23 201 8.0 17.7 0.00 0.97 0.03 50 1012.8
20260507120403 22 197 9.7 16.1 0.00 0.97 0.03 54 1012.7
20260507120004 22 213 9.7 22.5 0.00 0.97 0.03 55 1012.9
20260507115603 22 214 11.3 22.5 0.00 0.97 0.03 55 1012.9
20260507115415 22 209 11.3 22.5 0.00 0.97 0.03 54 1012.8
20260507114803 22 209 9.7 14.5 0.00 0.97 0.03 52 1012.7
20260507114403 21 217 9.7 22.5 0.00 0.97 0.03 54 1012.7
20260507114003 22 224 9.7 22.5 0.00 0.97 0.03 52 1012.9
20260507113603 21 237 9.7 17.7 0.00 0.97 0.03 55 1012.9
20260507113417 21 235 11.3 17.7 0.00 0.97 0.03 54 1012.8
20260507112803 21 221 8.0 17.7 0.00 0.97 0.03 55 1012.8
20260507112403 21 221 6.4 16.1 0.00 0.97 0.03 56 1012.9
20260507112003 21 219 8.0 14.5 0.00 0.97 0.03 54 1013.1
20260507111814 21 214 8.0 14.5 0.00 0.97 0.03 57 1013.0
20260507111203 21 211 9.7 20.9 0.00 0.97 0.03 54 1013.2
20260507110803 21 219 8.0 20.9 0.00 0.97 0.03 54 1013.2
20260507110403 21 218 6.4 12.9 0.00 0.97 0.03 59 1013.2
20260507110003 21 201 8.0 16.1 0.00 0.97 0.03 59 1013.1
20260507105603 21 200 8.0 16.1 0.00 0.97 0.03 59 1013.4
20260507105203 21 202 8.0 16.1 0.00 0.97 0.03 58 1013.4
20260507104803 21 228 8.0 20.9 0.00 0.97 0.03 61 1013.5
20260507104403 21 243 6.4 20.9 0.00 0.97 0.03 61 1013.6
20260507104003 20 211 8.0 20.9 0.00 0.97 0.03 60 1013.5
20260507103603 21 194 6.4 12.9 0.00 0.97 0.03 63 1013.6
20260507103203 21 225 6.4 9.7 0.00 0.97 0.03 62 1013.6
20260507102803 21 239 8.0 16.1 0.00 0.97 0.03 60 1013.6
20260507102403 20 245 9.7 16.1 0.00 0.97 0.03 62 1013.7
20260507102003 20 240 11.3 20.9 0.00 0.97 0.03 64 1013.8
20260507101603 21 225 11.3 20.9 0.00 0.97 0.03 60 1013.8
20260507101204 21 222 8.0 20.9 0.00 0.97 0.03 61 1013.8
20260507100803 21 210 6.4 14.5 0.00 0.97 0.03 61 1013.7
20260507100403 21 209 6.4 14.5 0.00 0.97 0.03 61 1013.7
20260507095816 20 221 8.0 12.9 0.00 0.97 0.03 60 1013.9
20260507095203 20 221 9.7 16.1 0.00 0.97 0.03 60 1013.7
20260507094803 20 215 8.0 16.1 0.00 0.97 0.03 56 1013.9
20260507094403 21 225 8.0 16.1 0.00 0.97 0.03 57 1013.8
20260507094003 21 226 6.4 12.9 0.00 0.97 0.03 57 1013.7
20260507093812 21 219 6.4 12.9 0.00 0.97 0.03 55 1013.7
20260507093203 20 229 6.4 14.5 0.00 0.97 0.03 57 1013.6
20260507092803 21 243 3.2 14.5 0.00 0.97 0.03 56 1013.6
20260507092403 20 261 1.6 9.7 0.00 0.97 0.03 61 1013.6
20260507092003 20 245 4.8 16.1 0.00 0.99 0.03 63 1013.7
20260507091603 20 225 6.4 16.1 0.00 0.99 0.03 63 1013.4
20260507091203 20 220 4.8 14.5 0.00 0.99 0.03 67 1013.6
20260507090803 20 229 3.2 11.3 0.00 1.02 0.03 67 1013.4
20260507090403 20 226 4.8 9.7 0.00 1.02 0.03 65 1013.7
20260507090004 20 180 4.8 9.7 0.00 1.04 0.03 67 1013.7
20260507085603 19 175 4.8 11.3 0.00 1.04 0.03 76 1013.6
20260507085203 18 191 4.8 11.3 0.00 1.04 0.03 74 1013.6
20260507084803 18 206 4.8 11.3 0.00 1.04 0.03 76 1013.5
20260507084403 18 170 4.8 11.3 0.00 1.04 0.03 79 1013.5
20260507084003 18 157 4.8 11.3 0.00 1.04 0.03 77 1013.5
20260507083603 18 172 6.4 14.5 0.00 1.04 0.03 77 1013.5
20260507083413 18 167 6.4 14.5 0.00 1.04 0.03 78 1013.5
20260507082803 18 159 6.4 14.5 0.00 1.04 0.03 80 1013.5
20260507082403 18 149 4.8 12.9 0.00 1.04 0.03 78 1013.4
20260507082216 18 157 3.2 9.7 0.00 1.04 0.03 78 1013.3
20260507081603 18 179 3.2 9.7 0.00 1.04 0.03 79 1013.3
20260507081203 18 200 3.2 6.4 0.00 1.04 0.03 79 1013.3
20260507081014 18 218 3.2 4.8 0.00 1.04 0.03 80 1013.5
20260507080403 18 224 3.2 6.4 0.00 1.04 0.03 74 1013.5
20260507080004 20 202 3.2 6.4 0.00 1.04 0.03 74 1013.3
20260507075817 20 183 1.6 6.4 0.00 1.04 0.03 76 1013.6
20260507075203 19 108 1.6 6.4 0.00 1.04 0.03 76 1013.3
20260507074803 18 110 1.6 3.2 0.00 1.04 0.03 77 1013.4
20260507074403 18 119 1.6 3.2 0.00 1.04 0.03 79 1013.4
20260507074003 18 138 1.6 3.2 0.00 1.04 0.03 78 1013.3
20260507073603 18 151 0.0 3.2 0.00 1.04 0.03 80 1013.3
20260507073203 17 253 0.0 1.6 0.00 1.04 0.03 82 1013.3
20260507072803 17 256 0.0 1.6 0.00 1.04 0.03 85 1013.3
20260507072403 17 254 0.0 1.6 0.00 1.04 0.03 85 1013.2
20260507072216 17 253 1.6 3.2 0.00 1.04 0.03 85 1013.2
20260507071604 17 253 1.6 4.8 0.00 1.04 0.03 85 1013.3
20260507071203 17 291 1.6 4.8 0.00 1.04 0.03 85 1013.3
20260507070803 17 325 1.6 3.2 0.00 1.04 0.03 87 1013.2
20260507070403 16 304 1.6 3.2 0.00 1.04 0.03 87 1013.2
20260507070004 16 276 0.0 1.6 0.00 1.04 0.03 87 1013.1
20260507065818 16 274 0.0 1.6 0.00 1.04 0.03 88 1013.1
20260507065203 16 269 1.6 3.2 0.00 1.04 0.03 90 1013.0
20260507065016 16 267 1.6 3.2 0.00 1.04 0.03 91 1013.1
20260507064403 16 259 1.6 3.2 0.00 1.04 0.03 90 1013.0
20260507064003 17 253 0.0 3.2 0.00 1.04 0.03 91 1012.9
20260507063603 16 0 0.0 0.0 0.00 1.07 0.03 95 1013.0
20260507063203 16 270 0.0 3.2 0.00 1.07 0.03 96 1012.8
20260507062803 15 251 0.0 3.2 0.00 1.07 0.03 97 1012.8
20260507062403 15 248 1.6 4.8 0.00 1.07 0.03 96 1012.8
20260507062003 15 243 3.2 4.8 0.00 1.07 0.03 96 1012.9
20260507061816 15 244 3.2 4.8 0.00 1.07 0.03 96 1012.9
20260507061203 15 252 4.8 6.4 0.00 1.07 0.03 97 1013.0
20260507060803 15 258 4.8 6.4 0.00 1.07 0.03 97 1012.8
20260507060403 15 259 4.8 6.4 0.00 1.07 0.03 97 1012.8
20260507060214 15 258 4.8 6.4 0.00 1.07 0.03 97 1012.9
20260507055603 15 266 1.6 6.4 0.00 1.07 0.03 97 1012.8
20260507055203 15 278 0.0 3.2 0.00 1.07 0.03 97 1012.9
20260507055017 15 285 0.0 1.6 0.00 1.07 0.03 98 1012.7
20260507054616 15 286 0.0 1.6 0.00 1.07 0.03 97 1012.7
20260507054004 15 286 0.0 1.6 0.00 1.07 0.03 98 1012.6
20260507053815 15 286 0.0 1.6 0.00 1.07 0.03 98 1012.4
20260507053204 15 0 0.0 0.0 0.00 1.07 0.03 98 1012.4
20260507053014 15 0 0.0 0.0 0.00 1.07 0.03 98 1012.3
20260507052403 15 0 0.0 0.0 0.00 1.07 0.03 98 1012.1
20260507052003 14 0 0.0 0.0 0.00 1.07 0.03 98 1012.3
20260507051817 14 0 0.0 0.0 0.00 1.07 0.03 98 1012.3
20260507051416 14 271 0.0 0.0 0.00 1.09 0.03 98 1012.3
20260507051016 13 270 0.0 3.2 0.00 1.09 0.03 98 1012.1